Voltar ao catálogo

ONEWEB-0244

AtivoComunicaçõesPO
NORAD 48776·PAYLOAD·🇬🇧 United Kingdom

Lançado May 28, 2021 de Vostochny Cosmodrome

Loading…

Próximas Passagens (próximas 24 horas)

TLE

AtualizadoSource: CelesTrak SupGP

Época: Sep 14, 2026, 11:07 UTC

1 48776C 21045K   26257.46333333 -.00012640  00000+0 -33616-1 0  2575
2 48776  87.8988 241.3896 0002114  83.3509  18.6800 13.15564685    19

Acompanhe ONEWEB-0244 em tempo real com AllMySat

Download on the App Store